THOR ABLESTAR R/B, 953

Orbit data source: Space-Track

THOR ABLESTAR R/B, 953 is space debris in LEO originally from a launch on Sun, 13 Dec 1964 UTC launched from the Air Force Western Test Range (AFWTR). Debris objects in space refer to the collection of defunct objects orbiting the Earth. Examples of debris include non-operational satellites, rocket bodies, and fragments generated from explosions, collisions, or faulty payload assembly.

Loading next visibility...
Identifier
953, 1964-083A
Orbit
LEO
Country
Flag of USUS
Related business
Manufacturer
Aerojet
Mission
Spacecraft
Bus & Motor
ABLESTAR, Unknown motor
Mass
~600 kg wet, 600 kg dry
Launch date (UTC)
1964-12-13 (62 years ago)
Launch vehicle
Unknown
Launch site
Air Force Western Test Range (AFWTR)
Object type
Payload
Rocket body
Debris
Shape & HBR
Unknown
Radar Cross Section
Large (>1 m²)

Expand to show TLE details & history
Last TLE update: 4 hours ago

TLE from 4 hours ago
0 THOR ABLESTAR R/B
1   953U 64083A   26168.88591733  .00000023  00000-0  17786-4 0  9993
2   953  90.0332 193.1308 0033632  74.2694  53.8857 13.58838289 48676
Epoch: 2026-06-17T21:15Z
TLE epoch observation values (Epoch: 2026-06-17T21:15:43.257Z)
Latitude
51.6276°
Longitude
148.1051°
Altitude
1,033.672 km
Speed
7.347 km/s
True Right ascension
00h 52m 41s
True Declination
51° 27' 59"
Sunlit
Object was in daylight at epoch
Visualization orbit readout
Latitude
Unknown
Longitude
Unknown
Altitude
Unknown
Speed
Unknown
Apparent Right ascension
Unknown
Apparent Declination
Unknown
Sunlit
N/A
Visualization observer readout
Local Sidereal Time
12:00:00
Azimuth
Unknown
Elevation
Unknown
Doppler factor
Unknown
Orbital elements
Apogee altitude
1,061.892 km
Perigee altitude
1,012.015 km
Semi-major axis
7,415.091 km
Eccentricity
0.00336
Inclination
90.0332°
RAAN
193.1308°
Arg. of periapsis
74.2694°
True anomaly
54.19781°
Mean anomaly
53.8857°
Eccentric anomaly
54.04168°
Mean motion
3.39914 °/min
Orbital period
105.91 mins
BSTAR
0.000017786
Loading maneuver chart data...
Computing Atmospheric mass density...

Documentation

Showing up to 5 results
|